This is the latest recevied weather packets stored in our database for station/object N9OJR. If no packets are shown the sender has not sent any weather packets the latest 10 day(s).
| Time | Temp. | Humidity | Pressure | Rain* | Wind** | Luminosity | Snow |
|---|---|---|---|---|---|---|---|
| 1778112549 | 10° C | 69% | 1009.3 hPa | 0 mm | - | 7 W/m² | - |
| 1778112243 | 10° C | 68% | 1009.4 hPa | 0 mm | - | 9 W/m² | - |
| 1778111940 | 10° C | 68% | 1009.2 hPa | 0 mm | - | 12 W/m² | - |
| 1778111637 | 10° C | 67% | 1009.5 hPa | 0 mm | - | 14 W/m² | - |
| 1778111332 | 10° C | 66% | 1009.2 hPa | 0 mm | - | 14 W/m² | - |
| 1778111031 | 10.56° C | 67% | 1009.2 hPa | 0 mm | - | 15 W/m² | - |
| 1778110728 | 10.56° C | 66% | 1009.5 hPa | 0 mm | - | 12 W/m² | - |
| 1778110424 | 11.11° C | 64% | 1009.6 hPa | 0 mm | - | 15 W/m² | - |
| 1778110121 | 11.11° C | 61% | 1009.5 hPa | 0 mm | - | 15 W/m² | - |
| 1778109817 | 11.11° C | 61% | 1009.3 hPa | 0 mm | - | 19 W/m² | - |
| 1778109513 | 11.11° C | 61% | 1009.3 hPa | 0 mm | - | 27 W/m² | - |
| 1778109211 | 11.11° C | 62% | 1009.3 hPa | 0 mm | - | 28 W/m² | - |
| 1778108907 | 11.11° C | 60% | 1009.2 hPa | 0 mm | - | 27 W/m² | - |
| 1778108599 | 11.67° C | 59% | 1009.3 hPa | 0 mm | - | 34 W/m² | - |
| 1778108295 | 11.67° C | 59% | 1008.9 hPa | 0 mm | - | 39 W/m² | - |
| 1778107993 | 11.67° C | 59% | 1009 hPa | 0 mm | - | 47 W/m² | - |
| 1778107689 | 11.67° C | 60% | 1009.1 hPa | 0 mm | - | 44 W/m² | - |
| 1778107387 | 11.67° C | 61% | 1009.3 hPa | 0 mm | - | 41 W/m² | - |
| 1778107083 | 11.67° C | 60% | 1009.1 hPa | 0 mm | - | 34 W/m² | - |
| 1778106778 | 11.67° C | 60% | 1009.2 hPa | 0 mm | - | 40 W/m² | - |
| 1778106474 | 11.67° C | 59% | 1009.2 hPa | 0 mm | - | 48 W/m² | - |
| 1778106170 | 12.22° C | 60% | 1008.8 hPa | 0 mm | - | 62 W/m² | - |
| 1778105863 | 12.22° C | 62% | 1009 hPa | 0 mm | - | 65 W/m² | - |
| 1778105561 | 12.22° C | 61% | 1008.7 hPa | 0 mm | - | 61 W/m² | - |
| 1778105257 | 12.22° C | 60% | 1008.6 hPa | 0 mm | - | 72 W/m² | - |
* Rain latest hour (hover to see other rain measurements)
** Current wind speed in m/s (hover to see current wind gust speed)